DLR82 EGLL-KJFK

Flight info

Callsign DLR82
Flight time N/A
Altitude 34000
Route CPT L9 BIBPE DCT BUCGO DCT FELCA DCT NICXI DCT BAKUR DCT NEBIN/M081F340 DCT 5330N02000W 5230N03000W 51N040W 4930N05000W DCT IBERG/N0467F340 N364A TUSKY DCT PLYMM PARCH4
Aircraft CONC/M-SDE2E3FGHIRWXY/LB1

Departure

Time N/A
Airport London Heathrow Airport (EGLL)

Arrival

Time 2026-05-07 11:06
Airport John F. Kennedy International Airport (KJFK)
Time Latitude Longitude Altitude Speed Heading
2026-05-07 10:50 41.10782 -72.25370 25478 ft 734 kts 219°
2026-05-07 10:50 41.07849 -72.30897 24666 ft 729 kts 218°
2026-05-07 10:51 41.04927 -72.36355 24025 ft 720 kts 218°
2026-05-07 10:51 41.02034 -72.41729 23399 ft 712 kts 218°
2026-05-07 10:51 40.99165 -72.47039 22713 ft 706 kts 217°
2026-05-07 10:51 40.96311 -72.52307 21985 ft 702 kts 217°
2026-05-07 10:52 40.93474 -72.57537 21254 ft 697 kts 217°
2026-05-07 10:52 40.90657 -72.62731 20557 ft 693 kts 217°
2026-05-07 10:52 40.87857 -72.67893 19863 ft 688 kts 217°
2026-05-07 10:52 40.85076 -72.73017 19181 ft 683 kts 216°
2026-05-07 10:53 40.82314 -72.78097 18505 ft 679 kts 216°
2026-05-07 10:53 40.79597 -72.83086 17842 ft 674 kts 216°
2026-05-07 10:53 40.76867 -72.88085 17182 ft 669 kts 216°
2026-05-07 10:53 40.74148 -72.93053 16514 ft 665 kts 215°
2026-05-07 10:54 40.71447 -72.97984 15860 ft 661 kts 215°
2026-05-07 10:54 40.68805 -73.02945 15211 ft 668 kts 221°
2026-05-07 10:54 40.66641 -73.08513 14519 ft 695 kts 239°
2026-05-07 10:54 40.64994 -73.14504 13927 ft 696 kts 244°
2026-05-07 10:55 40.63471 -73.20529 13304 ft 693 kts 245°
2026-05-07 10:55 40.61962 -73.26458 12665 ft 689 kts 244°
2026-05-07 10:55 40.60396 -73.32321 12039 ft 684 kts 242°
2026-05-07 10:55 40.58748 -73.38183 11418 ft 679 kts 240°
2026-05-07 10:56 40.57107 -73.43874 10960 ft 644 kts 239°
2026-05-07 10:56 40.55573 -73.49147 11017 ft 580 kts 238°
2026-05-07 10:56 40.53741 -73.53344 11333 ft 489 kts 220°
2026-05-07 10:56 40.51885 -73.56682 11576 ft 417 kts 220°
2026-05-07 10:57 40.50183 -73.59544 11243 ft 387 kts 222°
2026-05-07 10:57 40.49042 -73.62739 10490 ft 376 kts 259°
2026-05-07 10:57 40.49152 -73.65848 10514 ft 316 kts 281°
2026-05-07 10:57 40.50258 -73.68130 10490 ft 287 kts 309°
2026-05-07 10:58 40.51980 -73.69396 9680 ft 298 kts 339°
2026-05-07 10:58 40.54081 -73.69372 8664 ft 311 kts 12°
2026-05-07 10:58 40.55949 -73.67961 7704 ft 312 kts 45°
2026-05-07 10:58 40.57192 -73.65682 6828 ft 303 kts 66°
2026-05-07 10:59 40.57626 -73.63060 5921 ft 289 kts 94°
2026-05-07 10:59 40.57834 -73.60440 5056 ft 288 kts 83°
2026-05-07 10:59 40.58223 -73.57872 4204 ft 284 kts 83°
2026-05-07 10:59 40.58352 -73.55362 3356 ft 272 kts 109°
2026-05-07 11:00 40.57514 -73.53395 2964 ft 226 kts 150°
2026-05-07 11:00 40.56245 -73.52753 2761 ft 176 kts 193°
2026-05-07 11:00 40.55332 -73.53421 2554 ft 142 kts 242°
2026-05-07 11:00 40.55320 -73.54681 2133 ft 151 kts 283°
2026-05-07 11:01 40.55737 -73.55901 1925 ft 136 kts 279°
2026-05-07 11:01 40.56097 -73.56958 1789 ft 121 kts 276°
2026-05-07 11:01 40.56447 -73.58056 1536 ft 147 kts 281°
2026-05-07 11:01 40.56915 -73.59282 1675 ft 148 kts 284°
2026-05-07 11:02 40.57420 -73.60470 1793 ft 153 kts 285°
2026-05-07 11:02 40.57956 -73.61681 1839 ft 153 kts 286°
2026-05-07 11:02 40.58496 -73.62887 1882 ft 153 kts 286°
2026-05-07 11:02 40.59039 -73.64093 1904 ft 154 kts 286°
2026-05-07 11:03 40.59589 -73.65316 1860 ft 156 kts 286°
2026-05-07 11:03 40.60143 -73.66545 1694 ft 156 kts 286°
2026-05-07 11:03 40.60692 -73.67763 1474 ft 153 kts 287°
2026-05-07 11:03 40.61233 -73.68969 1281 ft 155 kts 288°
2026-05-07 11:04 40.61790 -73.70205 1076 ft 163 kts 288°
2026-05-07 11:04 40.62374 -73.71506 838 ft 165 kts 294°
2026-05-07 11:04 40.62958 -73.72791 644 ft 162 kts 297°
2026-05-07 11:04 40.63532 -73.74063 421 ft 161 kts 301°
2026-05-07 11:05 40.64091 -73.75302 214 ft 154 kts 302°
2026-05-07 11:05 40.64614 -73.76468 27 ft 143 kts 302°
2026-05-07 11:05 40.65070 -73.77462 17 ft 106 kts 300°
2026-05-07 11:05 40.65368 -73.78124 18 ft 62 kts 301°
2026-05-07 11:06 40.65417 -73.78339 18 ft 17 kts 224°
2026-05-07 11:06 40.65354 -73.78468 15 ft 16 kts 244°
2026-05-07 11:06 40.65304 -73.78601 17 ft 16 kts 242°
2026-05-07 11:06 40.65249 -73.78729 17 ft 18 kts 240°
2026-05-07 11:07 40.65212 -73.78877 15 ft 16 kts 247°
2026-05-07 11:07 40.65119 -73.78909 15 ft 14 kts 184°
2026-05-07 11:07 40.65034 -73.78944 15 ft 13 kts 236°
2026-05-07 11:07 40.64988 -73.79047 16 ft 11 kts 236°
2026-05-07 11:08 40.64929 -73.79060 15 ft 9 kts 172°
2026-05-07 11:08 40.64900 -73.79055 15 ft 1 kts 172°